Powrót do katalogu

ERMIS2

AktywnyNaukaSSO
NORAD 68420·PAYLOAD·🇬🇷 Greece

Wystrzelony Mar 30, 2026 z Vandenberg Space Force Base

Loading…

Następne Przeloty (najbliższe 24 godziny)

TLE

ŚwieżeSource: Space-Track

Epoka: Sep 14, 2026, 03:07 UTC

1 68420U 26067E   26257.12999321  .00008358  00000-0  37793-3 0  9995
2 68420  97.4567 214.6283 0001358  57.0194 303.1172 15.21178531 25467

Śledź ERMIS2 w czasie rzeczywistym z AllMySat

Download on the App Store